Location: Unspecified
(0.0000°N, 0.0000°E)
Time: 08:17:31
(UTC+00:00)

deb Midas III - Pass Details

Date: 12 March 2026
Orbit: 3314 x 3545 km, 91.1° (Epoch: 18 April)

Event Time Altitude Azimuth Distance (km) Brightness Sun altitude
Rises 02:29:44 0° 182° (S) 7,610 ? -54.9°
Reaches altitude 10° 02:34:04 10° 184° (S) 6,576 ? -53.8°
Enters shadow 02:42:46 36° 195° (SSW) 4,697 ? -51.6°
Exits shadow 03:06:53 18° 339° (NNW) 5,771 ? -45.6°
Drops below altitude 10° 03:09:43 10° 342° (NNW) 6,422 ? -44.9°
Sets 03:13:58 0° 346° (NNW) 7,425 ? -43.9°
